SCP
0 0 0 0 0 0 0 0 0 0 0 0 0 0 0 0 0 0 0 0 0 0 0 0 0 0 0 0 0 0 0 0 0 0 0 0 0 0 0 0 0 0 0 0 0 0 0 0 0 0 0 0 -0 -0
0 0 0 0 0 0 0 0 0 0 0 0 0 0 0 0 0 0 0 0 0 0 0 0 0 0 0 0 0 0 0 0 0 0 0 0 0 0 0 0 0 0 0 0 0 0 0 0 0 0 0 -0 0 -0
0 0 0 0 0 0 0 0 0 0 0 0 0 0 0 0 0 0 0 0 0 0 0 0 0 0 0 0 0 0 0 0 0 0 0 0 0 0 0 0 0 0 0 0 0 0 0 0 0 0 0 0 0 0
0 0 0 0 0 0 0 0 0 0 0 0 0 0 0 0 0 0 0 0 0 0 0 0 0 0 0 0 0 0 0 0 0 0 0 0 0 0 0 0 0 0 0 0 0 0 0 0 0 0 0 0 -0 0
0 0 0 0 0 0 0 0 0 0 0 0 0 0 0 0 0 0 0 0 0 0 0 0 0 0 0 0 0 0 0 0 0 0 0 0 0 0 0 0 0 0 0 0 0 0 0 0 0 0 0 0 0 0
0 0 0 0 0 0 0 0 0 0 0 0 0 0 0 0 0 0 0 0 0 0 0 -0 0 0 0 0 0 0 0 0 0 0 0 0 0 0 0 0 0 0 0 0 0 0 0 0 0 0 0 0 0 0
0 0 0 0 0 0 0 0 0 0 0 0 0 0 0 0 0 0 0 0 0 0 0 0 0 0 0 0 0 0 0 0 0 0 0 0 0 0 0 0 0 0 0 0 0 0 0 0 0 0 0 0 0 0
0 0 0 0 0 0 0 0 0 0 0 0 0 0 0 0 0 0 0 0 -0 0 0 0 0 0 0 0 0 0 0 0 0 0 0 0 0 0 0 0 0 0 0 0 0 0 0 0 0 0 0 0 0 0
0 0 0 0 0 0 0 0 0 0 0 0 0 0 0 0 0 0 0 0 0 0 0 0 0 0 0 0 0 0 0 0 0 0 0 0 0 -0 0 0 0 0 0 0 0 0 0 0 0 0 0 0 0 0
0 0 0 0 0 0 0 0 0 0 0 0 0 0 0 0 0 0 0 0 0 0 0 -0 0 0 0 0 0 0 0 0 0 0 0 -0 -0 -0 -0 0 0 0 0 -0 0 0 0 0 0 0 0 0 0 0
0 0 0 0 0 0 0 0 0 0 0 0 0 0 0 0 0 0 0 0 0 0 -0 0 0 0 0 0 0 0 0 0 0 0 0 -0 -0 -0 0 -0 -0 -0 0 -0 -0 -0 -0 -0 -0 0 0 0 0 0
0 0 0 0 0 0 0 0 0 0 0 0 0 0 0 0 0 0 0 0 0 0 0 0 0 0 0 0 0 0 0 0 0 0 0 -0 -0 0 0 -0 -0 -0 -0 -0 -0 -0 0 0 0 0 0 0 0 0
0 0 0 0 0 0 0 0 0 0 0 0 0 0 0 0 0 0 0 0 0 0 0 0 0 0 0 0 0 0 0 0 0 0 0 -0 0 0 0 0 0 0 0 -0 0 0 0 0 0 0 0 0 0 0
0 0 0 0 0 0 0 0 0 0 0 0 0 0 0 0 0 0 0 0 -0 -0 0 0 0 0 0 0 0 0 0 0 0 0 0 0 -0 0 0 0 0 0 0 -0 0 0 0 0 0 0 0 0 0 0
0 0 0 0 0 0 0 0 0 0 0 0 0 0 0 0 0 0 0 0 0 0 0 0 0 0 0 0 0 0 0 0 0 0 0 0 0 0 0 0 0 0 0 0 0 0 0 0 0 0 0 0 0 0
0 0 0 0 0 0 0 0 0 0 0 0 0 0 0 0 0 0 0 0 0 0 0 0 0 0 0 0 0 0 0 0 0 0 -0 -0 0 0 0 0 0 0 0 0 0 0 0 0 0 0 0 0 0 0
0 0 0 0 0 0 0 0 0 0 0 0 0 0 0 0 0 0 0 0 0 0 0 0 0 0 0 0 0 0 0 0 0 0 -0 0 0 0 0 0 0 0 0 0 0 0 0 0 0 0 0 0 0 0
0 0 0 0 0 0 0 0 0 0 0 0 0 0 0 0 0 0 0 0 0 -0 0 0 0 0 0 0 0 0 0 0 -1 0 0 0 0 0 0 0 0 0 0 0 0 0 0 0 0 0 0 0 0 0
0 0 -0 0 0 0 0 0 0 0 0 0 0 0 0 0 0 0 0 0 -0 -0 0 0 0 0 0 0 0 0 0 0 0 0 0 0 0 0 0 0 0 0 0 0 0 0 0 0 0 0 0 0 0 0
0 0 0 0 0 0 0 0 0 0 0 0 0 0 0 0 0 -0 -0 -0 -0 -0 -0 0 0 0 0 0 0 0 0 0 0 0 0 0 0 0 0 0 0 0 0 0 0 0 0 0 0 0 0 0 0 0
0 0 0 0 0 0 0 0 0 0 0 0 0 0 0 0 -0 -0 -0 0 0 0 0 0 0 0 0 0 0 0 0 0 0 -0 0 0 0 0 0 0 0 0 0 0 0 0 0 0 0 0 0 0 0 0
0 0 0 0 0 0 0 0 0 0 0 0 0 0 0 -0 0 0 0 0 0 0 0 0 0 0 0 0 0 0 0 0 -0 0 0 0 0 0 0 0 0 0 0 0 0 0 0 0 0 0 0 0 -0 -0
0 0 0 0 0 0 0 0 0 0 0 0 0 0 0 0 0 0 0 0 0 0 0 0 0 0 0 0 0 0 0 0 -0 -0 0 0 0 0 0 0 0 0 0 0 0 0 0 0 0 0 -0 0 -0 -0
0 -0 -0 0 0 0 0 0 0 0 0 0 0 0 0 0 0 0 0 0 0 0 0 0 0 0 0 0 0 0 0 0 0 0 0 0 0 0 0 0 0 0 0 0 0 0 0 0 -0 -0 -0 -0 -0 -0
-0 0 0 0 0 0 0 0 0 0 0 0 0 0 0 0 0 0 0 0 0 0 0 0 0 0 0 0 0 0 0 0 0 0 0 0 0 0 0 0 0 0 0 0 0 0 0 -0 -0 0 -0 0 0 0
-0 0 0 0 0 0 0 0 0 0 0 0 0 0 0 0 0 0 0 0 0 0 0 0 0 0 0 0 -0 0 0 0 0 0 0 0 0 0 0 0 -0 -0 -0 -0 0 0 0 -0 0 -0 -0 -0 -0 -0
0 0 0 0 0 0 0 0 0 0 0 0 0 0 0 0 0 0 0 0 0 0 0 0 0 0 -0 0 0 0 0 0 0 0 0 0 0 0 -0 -0 -0 -0 -0 0 0 0 0 -0 -0 -0 -0 -0 -0 0
0 0 0 0 0 0 0 0 0 0 0 0 0 0 0 0 0 0 0 0 0 0 0 0 0 0 -0 0 0 0 0 0 0 0 0 0 0 0 -0 -0 -0 -0 0 0 -0 0 0 -0 -0 0 -0 -0 -0 0
0 0 0 0 0 0 0 0 0 0 0 0 0 0 0 0 0 0 0 0 0 0 0 0 0 0 0 0 0 0 0 0 0 0 0 0 0 0 0 0 0 0 -0 -0 -0 -0 -0 0 0 0 -0 -0 0 0
0 0 0 0 0 0 0 0 0 0 -0 0 0 0 0 0 0 0 0 0 0 0 0 0 0 0 0 0 0 0 0 0 -0 0 0 -0 -0 -0 -0 0 0 -0 -0 -0 -0 -0 -0 0 -0 -0 -0 0 0 0
0 0 0 0 0 0 0 0 0 0 0 0 0 0 0 0 0 0 0 0 0 0 0 0 0 0 0 0 0 0 0 0 -0 -0 0 0 0 0 -0 0 0 0 -0 -0 -0 -0 -0 -0 -0 -0 -0 -0 0 0
0 0 0 0 0 0 0 0 0 0 0 0 0 0 0 0 0 0 0 0 0 0 0 0 0 0 0 0 0 0 0 -0 -0 -0 -0 -0 -0 -0 -0 0 0 -0 -0 -0 -0 -0 -0 -0 -0 -0 -0 0 0 0
0 0 0 0 0 0 0 0 0 0 0 0 0 0 0 0 0 0 0 0 0 0 0 0 0 0 0 0 0 0 -0 -0 -0 -0 -0 -0 -0 0 0 0 0 -0 -0 -0 -0 -0 -0 -0 -0 -0 0 -0 -0 0
Wind_Speed_500mb
28 30 32 32 30 30 31 31 30 30 31 29 28 28 28 29 28 22 8 15 12 14 54 56 40 23 13 4 2 16 14 7 9 9 5 4 4 3 5 5 3 11 12 8 7 7 6 21 4 21 16 31 72 59
31 31 30 29 29 29 30 29 30 31 31 31 31 29 27 26 26 27 9 18 27 31 39 41 48 54 49 51 30 9 9 12 8 6 2 3 4 7 5 6 3 3 10 7 15 16 10 63 23 20 39 58 56 68
31 31 30 29 29 31 31 31 33 34 35 35 34 31 29 25 23 27 34 24 25 29 67 53 55 28 36 62 69 26 14 14 8 1 9 5 5 6 3 8 5 2 10 6 2 8 8 43 31 28 43 69 72 79
33 31 27 27 30 32 34 35 35 36 36 36 34 31 30 28 27 30 38 35 30 16 13 23 16 32 19 18 36 67 62 13 10 4 3 5 4 7 4 6 5 6 4 4 6 7 22 20 42 48 51 66 70 70
31 32 32 33 33 32 33 33 35 35 36 36 35 33 32 31 34 39 41 36 31 28 11 37 83 48 35 50 56 49 71 65 20 1 4 5 6 3 2 5 8 10 9 7 10 14 6 22 51 52 65 70 71 71
33 34 34 33 34 34 34 32 32 34 35 35 33 33 32 32 38 35 8 10 15 36 12 10 24 44 25 21 40 65 62 54 37 11 7 12 6 5 2 6 9 10 12 3 9 16 20 52 57 59 62 62 62 63
34 35 35 34 34 32 31 31 33 34 32 32 34 35 33 32 36 27 11 4 13 11 8 14 14 15 13 17 22 34 54 28 28 18 16 10 0 11 3 6 4 12 24 17 32 62 44 55 58 63 66 69 69 69
35 36 35 33 31 31 31 33 35 34 32 34 36 36 36 36 41 36 7 29 31 21 12 7 11 16 16 12 15 22 26 21 18 14 10 5 13 11 8 27 34 36 39 27 18 7 58 55 62 66 67 71 69 73
33 32 31 30 29 31 31 33 32 30 32 33 35 38 32 13 9 2 9 9 35 20 10 8 6 8 32 5 12 14 14 5 3 5 5 7 6 12 19 37 53 43 42 38 5 23 61 72 69 72 75 74 68 64
30 29 27 27 28 29 29 30 30 31 28 24 25 8 6 2 8 7 6 4 13 18 18 9 10 8 22 18 10 8 12 6 2 6 12 8 8 31 21 56 74 60 54 61 59 45 41 65 81 79 75 67 63 67
25 25 27 28 28 27 29 29 29 28 18 7 7 8 12 14 9 8 9 12 12 8 17 21 36 15 22 1 6 10 3 7 8 9 7 7 8 12 26 49 72 63 55 78 80 80 84 78 80 77 67 58 53 54
25 25 25 24 23 24 24 23 22 19 12 11 18 32 15 6 10 6 8 4 9 9 10 9 18 27 11 12 3 6 4 2 9 16 7 6 9 28 40 52 57 64 62 66 70 71 76 75 71 63 58 55 51 46
22 25 24 22 22 25 23 19 15 14 11 8 5 7 6 7 3 10 13 7 7 7 7 27 10 7 11 11 6 1 3 4 2 4 8 10 9 25 41 43 47 50 57 69 60 69 72 71 62 55 55 50 46 45
25 24 22 25 24 20 16 10 10 8 6 5 5 9 8 9 9 4 6 6 21 24 42 26 9 6 2 4 4 3 2 1 3 4 9 8 31 28 36 45 55 53 64 67 68 76 76 66 59 46 40 49 50 46
18 18 11 9 16 20 18 12 10 10 5 6 5 8 9 13 23 28 37 32 42 41 31 13 8 7 3 6 0 1 4 9 11 9 8 20 23 38 44 54 64 64 68 67 64 73 74 63 53 54 54 51 43 42
14 5 10 18 22 22 13 10 8 9 7 8 13 9 23 15 15 18 30 33 38 28 22 9 4 4 9 8 10 13 9 11 9 8 13 9 42 63 56 65 69 69 68 70 77 71 61 50 51 56 53 48 48 45
6 4 10 16 18 15 3 6 5 8 9 9 14 29 41 33 34 39 26 39 32 23 3 6 7 10 1 6 8 9 9 6 11 21 5 31 57 71 70 69 71 70 70 75 72 62 54 56 56 55 58 53 44 37
8 12 12 15 16 10 6 7 7 8 13 20 14 34 30 38 38 44 45 27 16 8 17 3 8 3 7 7 5 4 10 26 15 6 13 39 56 67 72 72 69 72 79 69 64 62 60 60 60 57 51 45 37 38
13 15 15 15 13 10 5 7 10 10 21 20 37 49 47 45 48 43 39 19 18 13 6 8 7 6 5 4 4 13 10 1 4 16 26 44 53 70 67 65 73 79 71 68 62 60 55 48 44 46 42 40 36 35
14 11 12 12 9 6 6 8 11 12 12 11 26 33 25 25 32 21 14 9 6 6 7 4 5 6 6 11 9 8 33 29 33 38 29 37 55 65 73 80 77 71 66 61 54 49 49 43 34 33 32 31 36 38
7 3 5 7 12 12 9 8 12 14 17 15 27 29 19 19 11 4 5 11 2 6 5 12 22 22 21 8 10 3 25 14 15 25 16 27 56 71 75 71 69 65 58 53 51 49 42 37 33 32 33 38 40 36
9 11 5 10 7 7 12 14 13 18 15 21 21 11 11 6 5 5 19 6 8 10 11 23 27 27 19 7 4 7 18 39 41 47 41 43 62 70 71 68 59 53 49 48 49 46 35 33 37 38 45 43 40 34
13 11 7 7 7 7 13 11 9 9 5 9 10 7 6 6 5 29 8 6 4 11 16 27 28 18 10 3 4 6 18 26 45 42 37 44 52 57 61 60 54 50 47 46 40 39 42 43 51 46 40 34 28 26
10 6 5 6 10 8 9 8 11 10 9 6 5 7 5 8 15 2 3 4 10 23 24 22 15 13 16 10 13 17 26 14 32 49 49 54 58 60 55 47 42 32 34 41 41 52 47 44 41 36 26 22 23 26
5 7 6 8 8 6 6 5 7 5 6 6 6 7 8 13 7 4 4 9 13 13 12 15 5 20 26 15 5 14 35 23 33 39 39 41 46 56 43 33 30 35 38 42 54 47 41 36 34 33 29 31 27 27
5 11 11 7 5 6 5 5 4 6 6 6 5 14 10 5 6 7 10 33 17 15 10 22 24 21 25 22 19 21 28 28 34 35 33 41 53 55 51 50 49 43 44 49 46 40 36 38 38 40 32 24 16 24
7 10 13 13 7 7 9 13 13 6 7 4 6 8 6 5 4 7 32 38 25 27 14 12 13 14 24 27 30 29 30 30 43 42 44 49 54 53 53 53 49 46 46 43 41 39 44 41 39 30 27 25 21 20
12 10 10 13 11 13 6 4 5 5 5 6 9 6 10 8 6 21 33 37 26 20 10 9 19 12 29 43 33 36 32 27 40 35 47 50 46 46 41 35 30 36 40 36 33 43 42 38 32 26 26 21 20 20
11 12 16 11 10 9 10 8 7 7 5 10 5 5 8 11 32 41 49 35 10 12 6 18 14 28 30 28 25 25 32 43 46 44 48 49 44 40 35 35 37 35 34 33 33 32 38 33 29 22 17 26 22 22
11 25 14 14 7 9 14 20 11 12 18 16 11 19 28 34 38 29 27 16 2 4 25 26 27 21 12 6 21 32 44 44 42 46 48 44 41 35 32 40 39 34 34 37 32 30 30 34 34 30 22 27 26 24
11 30 9 14 9 19 28 24 22 26 29 30 28 29 32 24 17 14 14 7 3 10 18 18 22 6 8 20 34 40 45 45 37 32 34 39 38 34 31 32 34 40 38 35 35 34 25 20 24 32 29 33 30 24
26 23 14 8 9 16 16 12 11 11 9 12 12 7 7 6 6 6 10 5 9 5 14 9 5 6 9 29 38 40 32 33 32 29 29 30 31 30 30 29 29 29 30 30 31 32 33 36 37 38 37 32 27 24
15 18 18 7 6 7 12 10 10 5 9 8 6 5 6 3 4 4 8 1 14 12 5 16 17 21 32 34 37 37 35 34 32 29 30 33 34 33 32 27 28 30 33 36 35 33 32 34 37 40 32 26 27 21
Wind_Direction_500mb
316 317 318 317 320 326 332 333 331 328 328 328 328 329 332 336 338 347 268 234 247 257 268 264 255 253 256 287 251 323 346 308 2 55 75 311 289 349 29 308 202 176 139 161 106 109 189 171 108 165 169 161 163 168
315 313 312 314 316 319 325 330 333 333 332 329 326 323 323 325 331 327 304 237 266 267 265 274 271 266 259 255 254 279 281 283 241 100 184 105 303 359 104 240 303 199 171 197 175 203 219 175 200 164 160 159 166 165
310 309 307 309 311 312 313 315 321 324 326 328 329 324 318 314 313 310 303 304 299 284 290 274 272 285 260 247 241 231 254 239 235 150 165 148 233 147 246 250 280 251 35 218 72 262 237 158 161 171 158 162 168 176
316 315 316 310 309 308 307 307 309 314 320 323 321 323 320 310 301 297 294 295 290 285 276 288 287 281 270 221 230 231 225 233 211 195 339 125 195 161 238 278 253 211 9 319 285 345 83 119 160 166 165 166 170 174
310 312 313 312 311 309 306 305 305 310 315 319 317 314 314 309 304 296 295 282 257 222 285 292 301 297 247 242 241 230 218 227 230 167 47 251 186 161 212 18 259 183 186 178 226 213 146 169 143 159 161 163 170 168
307 309 308 308 308 309 307 304 304 308 310 312 312 310 309 311 308 320 295 286 242 210 280 300 298 288 274 239 224 218 213 215 215 195 205 258 189 146 111 250 255 219 171 168 258 216 169 141 143 160 153 157 164 170
305 306 308 306 307 307 307 304 304 308 308 309 309 306 303 301 294 284 270 266 148 139 257 292 288 281 321 202 185 190 203 187 196 187 200 246 343 187 190 241 231 146 94 72 149 139 115 140 143 150 151 158 164 165
304 304 306 305 304 304 304 305 305 306 305 308 308 302 297 288 284 286 312 229 215 261 258 271 275 306 11 189 132 149 149 168 198 187 121 89 267 176 252 230 194 157 93 97 117 158 149 151 150 153 161 161 156 155
303 304 303 303 305 305 307 310 308 306 308 309 306 305 295 267 249 314 332 196 213 220 277 243 271 279 338 332 137 125 140 150 197 177 177 185 189 212 229 192 195 178 127 107 271 171 155 156 160 161 162 161 150 150
304 304 303 305 306 308 309 308 307 309 317 314 314 288 279 55 279 274 238 214 177 204 231 245 257 276 329 343 321 87 137 123 65 227 133 214 257 260 256 199 184 181 169 167 177 161 157 147 162 160 160 155 156 158
303 304 306 304 303 307 308 307 308 311 318 328 287 268 278 293 255 224 228 191 194 246 220 236 222 230 270 256 267 23 161 178 121 265 191 209 262 245 192 173 187 190 178 186 202 193 183 174 169 161 153 152 156 158
299 302 305 308 307 307 316 318 313 313 298 288 292 298 300 245 226 211 220 231 199 233 221 217 226 209 230 215 222 347 149 98 199 143 144 248 247 222 195 193 193 196 194 192 194 186 178 178 172 161 155 155 156 157
299 301 303 304 309 307 301 315 319 309 302 290 275 267 251 241 254 223 203 236 226 238 307 347 305 222 181 206 93 239 72 246 184 187 222 231 226 201 201 195 196 196 198 193 188 186 185 180 172 165 158 158 157 162
301 303 300 300 299 304 304 291 318 317 304 261 258 276 202 222 247 289 348 259 295 285 309 309 291 263 251 77 131 89 230 66 272 259 231 243 232 211 194 188 181 184 187 185 182 181 181 173 166 167 167 166 167 170
302 310 316 331 318 308 289 263 258 266 267 260 243 247 241 265 286 294 309 306 306 310 314 302 206 236 217 81 298 161 209 224 215 230 230 240 204 177 169 178 179 176 180 180 177 173 170 168 166 169 171 169 170 173
307 289 308 334 336 328 291 235 235 226 250 241 233 258 267 297 286 279 281 281 321 297 313 219 227 214 233 159 167 203 176 210 240 232 287 235 171 166 165 171 169 172 176 172 168 164 164 168 171 172 170 171 174 174
278 282 304 327 344 352 348 201 237 239 245 242 245 243 252 277 270 277 287 302 310 315 218 118 249 229 150 206 202 178 213 232 312 319 321 165 163 164 164 165 166 169 169 165 161 164 167 166 166 164 165 170 173 173
285 290 311 318 329 310 245 229 246 247 250 251 253 262 253 253 265 279 287 295 295 339 311 175 298 264 224 191 258 297 305 315 355 263 199 177 165 161 165 164 164 162 158 161 165 160 161 161 163 163 164 165 165 163
302 290 290 300 314 320 251 229 234 258 249 259 261 270 270 270 282 286 284 270 291 277 293 262 242 229 253 260 271 291 284 54 43 87 140 161 166 164 161 158 159 160 158 156 158 159 161 163 159 162 165 164 168 170
297 298 255 253 275 271 260 244 224 259 265 266 273 272 268 264 278 281 246 258 300 255 204 266 258 267 260 266 285 273 109 108 115 98 101 144 158 157 155 158 156 154 154 157 157 154 151 151 157 161 160 165 175 171
304 271 261 257 260 234 261 259 247 245 279 266 282 291 279 273 285 255 262 294 285 232 234 227 264 295 294 319 29 82 136 136 108 95 99 145 154 156 152 153 155 155 153 155 155 154 154 156 159 161 159 160 156 143
252 276 262 258 252 246 261 241 249 279 283 271 294 255 274 278 227 218 317 241 232 235 252 284 298 290 278 284 38 64 123 107 114 145 209 178 152 151 154 156 156 156 159 161 160 158 156 155 157 154 154 148 155 162
249 245 236 246 250 242 267 260 257 255 245 265 287 267 251 241 230 158 253 250 260 197 252 279 296 295 298 80 194 154 121 149 142 155 160 167 163 162 162 164 165 156 159 160 154 148 147 150 152 151 154 164 176 186
215 229 233 238 223 268 291 265 248 263 270 275 266 277 271 271 319 49 264 235 132 242 242 262 287 238 197 143 129 157 166 131 174 174 170 167 167 169 167 164 161 163 158 150 151 150 149 151 160 167 177 201 211 205
191 217 221 252 237 248 251 258 255 276 263 267 291 303 319 335 5 325 299 301 310 299 197 187 182 154 150 146 152 155 162 166 163 165 173 171 162 157 164 167 162 153 155 153 158 164 171 181 201 209 201 192 197 200
199 207 200 224 224 211 262 276 294 298 298 285 290 309 328 3 331 342 345 339 336 3 153 185 167 135 134 132 119 133 142 157 167 176 185 185 170 160 158 161 165 167 169 166 167 174 189 190 181 176 172 179 172 170
219 214 222 228 242 277 283 265 267 267 271 303 320 325 326 305 47 333 344 356 344 332 336 217 232 213 136 115 119 133 140 156 170 172 177 174 170 167 166 164 174 177 177 180 185 185 177 176 174 175 180 189 203 216
233 216 206 193 213 224 271 287 261 249 267 307 318 320 337 16 18 337 338 337 329 335 305 201 162 123 105 118 125 138 170 169 166 162 162 167 172 174 175 182 191 186 183 179 177 183 176 169 172 188 210 228 188 204
219 212 192 206 211 228 233 222 243 261 339 348 339 305 310 324 327 329 327 340 329 346 185 167 174 135 131 115 104 123 138 154 158 157 160 166 168 172 178 175 164 164 173 182 181 185 186 184 191 192 190 183 180 165
221 194 198 198 208 224 228 209 223 283 299 318 306 300 299 303 320 324 325 331 193 147 160 145 149 129 115 141 137 149 147 152 155 154 161 167 171 168 171 169 169 165 170 167 164 162 170 182 193 208 225 183 166 192
183 180 203 205 245 241 241 246 262 270 278 286 285 284 291 307 321 332 337 337 199 167 190 194 191 203 107 139 159 152 156 162 165 162 157 160 166 165 165 167 162 162 164 171 168 171 177 179 176 171 177 179 177 180
181 178 194 210 240 249 228 219 217 218 263 282 298 292 310 302 293 338 323 318 202 168 181 204 204 173 135 143 151 163 155 153 160 160 158 164 164 158 153 160 166 169 176 179 182 184 184 175 174 181 180 177 174 165
176 187 207 267 250 204 183 176 192 224 211 220 218 204 235 254 282 332 356 351 173 163 186 215 199 141 140 139 141 141 141 142 146 152 156 150 145 147 150 148 150 153 158 164 169 175 177 179 179 180 176 179 172 166
Wind_Speed_850mb
28 30 32 32 30 30 31 31 30 30 31 29 28 28 28 29 28 22 8 15 12 14 54 56 40 23 13 4 2 16 14 7 9 9 5 4 4 3 5 5 3 11 12 8 7 7 6 21 4 21 16 31 72 59
31 31 30 29 29 29 30 29 30 31 31 31 31 29 27 26 26 27 9 18 27 31 39 41 48 54 49 51 30 9 9 12 8 6 2 3 4 7 5 6 3 3 10 7 15 16 10 63 23 20 39 58 56 68
31 31 30 29 29 31 31 31 33 34 35 35 34 31 29 25 23 27 34 24 25 29 67 53 55 28 36 62 69 26 14 14 8 1 9 5 5 6 3 8 5 2 10 6 2 8 8 43 31 28 43 69 72 79
33 31 27 27 30 32 34 35 35 36 36 36 34 31 30 28 27 30 38 35 30 16 13 23 16 32 19 18 36 67 62 13 10 4 3 5 4 7 4 6 5 6 4 4 6 7 22 20 42 48 51 66 70 70
31 32 32 33 33 32 33 33 35 35 36 36 35 33 32 31 34 39 41 36 31 28 11 37 83 48 35 50 56 49 71 65 20 1 4 5 6 3 2 5 8 10 9 7 10 14 6 22 51 52 65 70 71 71
33 34 34 33 34 34 34 32 32 34 35 35 33 33 32 32 38 35 8 10 15 36 12 10 24 44 25 21 40 65 62 54 37 11 7 12 6 5 2 6 9 10 12 3 9 16 20 52 57 59 62 62 62 63
34 35 35 34 34 32 31 31 33 34 32 32 34 35 33 32 36 27 11 4 13 11 8 14 14 15 13 17 22 34 54 28 28 18 16 10 0 11 3 6 4 12 24 17 32 62 44 55 58 63 66 69 69 69
35 36 35 33 31 31 31 33 35 34 32 34 36 36 36 36 41 36 7 29 31 21 12 7 11 16 16 12 15 22 26 21 18 14 10 5 13 11 8 27 34 36 39 27 18 7 58 55 62 66 67 71 69 73
33 32 31 30 29 31 31 33 32 30 32 33 35 38 32 13 9 2 9 9 35 20 10 8 6 8 32 5 12 14 14 5 3 5 5 7 6 12 19 37 53 43 42 38 5 23 61 72 69 72 75 74 68 64
30 29 27 27 28 29 29 30 30 31 28 24 25 8 6 2 8 7 6 4 13 18 18 9 10 8 22 18 10 8 12 6 2 6 12 8 8 31 21 56 74 60 54 61 59 45 41 65 81 79 75 67 63 67
25 25 27 28 28 27 29 29 29 28 18 7 7 8 12 14 9 8 9 12 12 8 17 21 36 15 22 1 6 10 3 7 8 9 7 7 8 12 26 49 72 63 55 78 80 80 84 78 80 77 67 58 53 54
25 25 25 24 23 24 24 23 22 19 12 11 18 32 15 6 10 6 8 4 9 9 10 9 18 27 11 12 3 6 4 2 9 16 7 6 9 28 40 52 57 64 62 66 70 71 76 75 71 63 58 55 51 46
22 25 24 22 22 25 23 19 15 14 11 8 5 7 6 7 3 10 13 7 7 7 7 27 10 7 11 11 6 1 3 4 2 4 8 10 9 25 41 43 47 50 57 69 60 69 72 71 62 55 55 50 46 45
25 24 22 25 24 20 16 10 10 8 6 5 5 9 8 9 9 4 6 6 21 24 42 26 9 6 2 4 4 3 2 1 3 4 9 8 31 28 36 45 55 53 64 67 68 76 76 66 59 46 40 49 50 46
18 18 11 9 16 20 18 12 10 10 5 6 5 8 9 13 23 28 37 32 42 41 31 13 8 7 3 6 0 1 4 9 11 9 8 20 23 38 44 54 64 64 68 67 64 73 74 63 53 54 54 51 43 42
14 5 10 18 22 22 13 10 8 9 7 8 13 9 23 15 15 18 30 33 38 28 22 9 4 4 9 8 10 13 9 11 9 8 13 9 42 63 56 65 69 69 68 70 77 71 61 50 51 56 53 48 48 45
6 4 10 16 18 15 3 6 5 8 9 9 14 29 41 33 34 39 26 39 32 23 3 6 7 10 1 6 8 9 9 6 11 21 5 31 57 71 70 69 71 70 70 75 72 62 54 56 56 55 58 53 44 37
8 12 12 15 16 10 6 7 7 8 13 20 14 34 30 38 38 44 45 27 16 8 17 3 8 3 7 7 5 4 10 26 15 6 13 39 56 67 72 72 69 72 79 69 64 62 60 60 60 57 51 45 37 38
13 15 15 15 13 10 5 7 10 10 21 20 37 49 47 45 48 43 39 19 18 13 6 8 7 6 5 4 4 13 10 1 4 16 26 44 53 70 67 65 73 79 71 68 62 60 55 48 44 46 42 40 36 35
14 11 12 12 9 6 6 8 11 12 12 11 26 33 25 25 32 21 14 9 6 6 7 4 5 6 6 11 9 8 33 29 33 38 29 37 55 65 73 80 77 71 66 61 54 49 49 43 34 33 32 31 36 38
7 3 5 7 12 12 9 8 12 14 17 15 27 29 19 19 11 4 5 11 2 6 5 12 22 22 21 8 10 3 25 14 15 25 16 27 56 71 75 71 69 65 58 53 51 49 42 37 33 32 33 38 40 36
9 11 5 10 7 7 12 14 13 18 15 21 21 11 11 6 5 5 19 6 8 10 11 23 27 27 19 7 4 7 18 39 41 47 41 43 62 70 71 68 59 53 49 48 49 46 35 33 37 38 45 43 40 34
13 11 7 7 7 7 13 11 9 9 5 9 10 7 6 6 5 29 8 6 4 11 16 27 28 18 10 3 4 6 18 26 45 42 37 44 52 57 61 60 54 50 47 46 40 39 42 43 51 46 40 34 28 26
10 6 5 6 10 8 9 8 11 10 9 6 5 7 5 8 15 2 3 4 10 23 24 22 15 13 16 10 13 17 26 14 32 49 49 54 58 60 55 47 42 32 34 41 41 52 47 44 41 36 26 22 23 26
5 7 6 8 8 6 6 5 7 5 6 6 6 7 8 13 7 4 4 9 13 13 12 15 5 20 26 15 5 14 35 23 33 39 39 41 46 56 43 33 30 35 38 42 54 47 41 36 34 33 29 31 27 27
5 11 11 7 5 6 5 5 4 6 6 6 5 14 10 5 6 7 10 33 17 15 10 22 24 21 25 22 19 21 28 28 34 35 33 41 53 55 51 50 49 43 44 49 46 40 36 38 38 40 32 24 16 24
7 10 13 13 7 7 9 13 13 6 7 4 6 8 6 5 4 7 32 38 25 27 14 12 13 14 24 27 30 29 30 30 43 42 44 49 54 53 53 53 49 46 46 43 41 39 44 41 39 30 27 25 21 20
12 10 10 13 11 13 6 4 5 5 5 6 9 6 10 8 6 21 33 37 26 20 10 9 19 12 29 43 33 36 32 27 40 35 47 50 46 46 41 35 30 36 40 36 33 43 42 38 32 26 26 21 20 20
11 12 16 11 10 9 10 8 7 7 5 10 5 5 8 11 32 41 49 35 10 12 6 18 14 28 30 28 25 25 32 43 46 44 48 49 44 40 35 35 37 35 34 33 33 32 38 33 29 22 17 26 22 22
11 25 14 14 7 9 14 20 11 12 18 16 11 19 28 34 38 29 27 16 2 4 25 26 27 21 12 6 21 32 44 44 42 46 48 44 41 35 32 40 39 34 34 37 32 30 30 34 34 30 22 27 26 24
11 30 9 14 9 19 28 24 22 26 29 30 28 29 32 24 17 14 14 7 3 10 18 18 22 6 8 20 34 40 45 45 37 32 34 39 38 34 31 32 34 40 38 35 35 34 25 20 24 32 29 33 30 24
26 23 14 8 9 16 16 12 11 11 9 12 12 7 7 6 6 6 10 5 9 5 14 9 5 6 9 29 38 40 32 33 32 29 29 30 31 30 30 29 29 29 30 30 31 32 33 36 37 38 37 32 27 24
15 18 18 7 6 7 12 10 10 5 9 8 6 5 6 3 4 4 8 1 14 12 5 16 17 21 32 34 37 37 35 34 32 29 30 33 34 33 32 27 28 30 33 36 35 33 32 34 37 40 32 26 27 21
Wind_Direction_850mb
316 317 318 317 320 326 332 333 331 328 328 328 328 329 332 336 338 347 268 234 247 257 268 264 255 253 256 287 251 323 346 308 2 55 75 311 289 349 29 308 202 176 139 161 106 109 189 171 108 165 169 161 163 168
315 313 312 314 316 319 325 330 333 333 332 329 326 323 323 325 331 327 304 237 266 267 265 274 271 266 259 255 254 279 281 283 241 100 184 105 303 359 104 240 303 199 171 197 175 203 219 175 200 164 160 159 166 165
310 309 307 309 311 312 313 315 321 324 326 328 329 324 318 314 313 310 303 304 299 284 290 274 272 285 260 247 241 231 254 239 235 150 165 148 233 147 246 250 280 251 35 218 72 262 237 158 161 171 158 162 168 176
316 315 316 310 309 308 307 307 309 314 320 323 321 323 320 310 301 297 294 295 290 285 276 288 287 281 270 221 230 231 225 233 211 195 339 125 195 161 238 278 253 211 9 319 285 345 83 119 160 166 165 166 170 174
310 312 313 312 311 309 306 305 305 310 315 319 317 314 314 309 304 296 295 282 257 222 285 292 301 297 247 242 241 230 218 227 230 167 47 251 186 161 212 18 259 183 186 178 226 213 146 169 143 159 161 163 170 168
307 309 308 308 308 309 307 304 304 308 310 312 312 310 309 311 308 320 295 286 242 210 280 300 298 288 274 239 224 218 213 215 215 195 205 258 189 146 111 250 255 219 171 168 258 216 169 141 143 160 153 157 164 170
305 306 308 306 307 307 307 304 304 308 308 309 309 306 303 301 294 284 270 266 148 139 257 292 288 281 321 202 185 190 203 187 196 187 200 246 343 187 190 241 231 146 94 72 149 139 115 140 143 150 151 158 164 165
304 304 306 305 304 304 304 305 305 306 305 308 308 302 297 288 284 286 312 229 215 261 258 271 275 306 11 189 132 149 149 168 198 187 121 89 267 176 252 230 194 157 93 97 117 158 149 151 150 153 161 161 156 155
303 304 303 303 305 305 307 310 308 306 308 309 306 305 295 267 249 314 332 196 213 220 277 243 271 279 338 332 137 125 140 150 197 177 177 185 189 212 229 192 195 178 127 107 271 171 155 156 160 161 162 161 150 150
304 304 303 305 306 308 309 308 307 309 317 314 314 288 279 55 279 274 238 214 177 204 231 245 257 276 329 343 321 87 137 123 65 227 133 214 257 260 256 199 184 181 169 167 177 161 157 147 162 160 160 155 156 158
303 304 306 304 303 307 308 307 308 311 318 328 287 268 278 293 255 224 228 191 194 246 220 236 222 230 270 256 267 23 161 178 121 265 191 209 262 245 192 173 187 190 178 186 202 193 183 174 169 161 153 152 156 158
299 302 305 308 307 307 316 318 313 313 298 288 292 298 300 245 226 211 220 231 199 233 221 217 226 209 230 215 222 347 149 98 199 143 144 248 247 222 195 193 193 196 194 192 194 186 178 178 172 161 155 155 156 157
299 301 303 304 309 307 301 315 319 309 302 290 275 267 251 241 254 223 203 236 226 238 307 347 305 222 181 206 93 239 72 246 184 187 222 231 226 201 201 195 196 196 198 193 188 186 185 180 172 165 158 158 157 162
301 303 300 300 299 304 304 291 318 317 304 261 258 276 202 222 247 289 348 259 295 285 309 309 291 263 251 77 131 89 230 66 272 259 231 243 232 211 194 188 181 184 187 185 182 181 181 173 166 167 167 166 167 170
302 310 316 331 318 308 289 263 258 266 267 260 243 247 241 265 286 294 309 306 306 310 314 302 206 236 217 81 298 161 209 224 215 230 230 240 204 177 169 178 179 176 180 180 177 173 170 168 166 169 171 169 170 173
307 289 308 334 336 328 291 235 235 226 250 241 233 258 267 297 286 279 281 281 321 297 313 219 227 214 233 159 167 203 176 210 240 232 287 235 171 166 165 171 169 172 176 172 168 164 164 168 171 172 170 171 174 174
278 282 304 327 344 352 348 201 237 239 245 242 245 243 252 277 270 277 287 302 310 315 218 118 249 229 150 206 202 178 213 232 312 319 321 165 163 164 164 165 166 169 169 165 161 164 167 166 166 164 165 170 173 173
285 290 311 318 329 310 245 229 246 247 250 251 253 262 253 253 265 279 287 295 295 339 311 175 298 264 224 191 258 297 305 315 355 263 199 177 165 161 165 164 164 162 158 161 165 160 161 161 163 163 164 165 165 163
302 290 290 300 314 320 251 229 234 258 249 259 261 270 270 270 282 286 284 270 291 277 293 262 242 229 253 260 271 291 284 54 43 87 140 161 166 164 161 158 159 160 158 156 158 159 161 163 159 162 165 164 168 170
297 298 255 253 275 271 260 244 224 259 265 266 273 272 268 264 278 281 246 258 300 255 204 266 258 267 260 266 285 273 109 108 115 98 101 144 158 157 155 158 156 154 154 157 157 154 151 151 157 161 160 165 175 171
304 271 261 257 260 234 261 259 247 245 279 266 282 291 279 273 285 255 262 294 285 232 234 227 264 295 294 319 29 82 136 136 108 95 99 145 154 156 152 153 155 155 153 155 155 154 154 156 159 161 159 160 156 143
252 276 262 258 252 246 261 241 249 279 283 271 294 255 274 278 227 218 317 241 232 235 252 284 298 290 278 284 38 64 123 107 114 145 209 178 152 151 154 156 156 156 159 161 160 158 156 155 157 154 154 148 155 162
249 245 236 246 250 242 267 260 257 255 245 265 287 267 251 241 230 158 253 250 260 197 252 279 296 295 298 80 194 154 121 149 142 155 160 167 163 162 162 164 165 156 159 160 154 148 147 150 152 151 154 164 176 186
215 229 233 238 223 268 291 265 248 263 270 275 266 277 271 271 319 49 264 235 132 242 242 262 287 238 197 143 129 157 166 131 174 174 170 167 167 169 167 164 161 163 158 150 151 150 149 151 160 167 177 201 211 205
191 217 221 252 237 248 251 258 255 276 263 267 291 303 319 335 5 325 299 301 310 299 197 187 182 154 150 146 152 155 162 166 163 165 173 171 162 157 164 167 162 153 155 153 158 164 171 181 201 209 201 192 197 200
199 207 200 224 224 211 262 276 294 298 298 285 290 309 328 3 331 342 345 339 336 3 153 185 167 135 134 132 119 133 142 157 167 176 185 185 170 160 158 161 165 167 169 166 167 174 189 190 181 176 172 179 172 170
219 214 222 228 242 277 283 265 267 267 271 303 320 325 326 305 47 333 344 356 344 332 336 217 232 213 136 115 119 133 140 156 170 172 177 174 170 167 166 164 174 177 177 180 185 185 177 176 174 175 180 189 203 216
233 216 206 193 213 224 271 287 261 249 267 307 318 320 337 16 18 337 338 337 329 335 305 201 162 123 105 118 125 138 170 169 166 162 162 167 172 174 175 182 191 186 183 179 177 183 176 169 172 188 210 228 188 204
219 212 192 206 211 228 233 222 243 261 339 348 339 305 310 324 327 329 327 340 329 346 185 167 174 135 131 115 104 123 138 154 158 157 160 166 168 172 178 175 164 164 173 182 181 185 186 184 191 192 190 183 180 165
221 194 198 198 208 224 228 209 223 283 299 318 306 300 299 303 320 324 325 331 193 147 160 145 149 129 115 141 137 149 147 152 155 154 161 167 171 168 171 169 169 165 170 167 164 162 170 182 193 208 225 183 166 192
183 180 203 205 245 241 241 246 262 270 278 286 285 284 291 307 321 332 337 337 199 167 190 194 191 203 107 139 159 152 156 162 165 162 157 160 166 165 165 167 162 162 164 171 168 171 177 179 176 171 177 179 177 180
181 178 194 210 240 249 228 219 217 218 263 282 298 292 310 302 293 338 323 318 202 168 181 204 204 173 135 143 151 163 155 153 160 160 158 164 164 158 153 160 166 169 176 179 182 184 184 175 174 181 180 177 174 165
176 187 207 267 250 204 183 176 192 224 211 220 218 204 235 254 282 332 356 351 173 163 186 215 199 141 140 139 141 141 141 142 146 152 156 150 145 147 150 148 150 153 158 164 169 175 177 179 179 180 176 179 172 166